[[[{"header":{"parameterUnit":"kt","parameterCategory":2,"dx":1,"dy":1,"la1":30.253999710083008,"la2":30.299108505249023,"lo1":-89.0895004272461,"lo2":-89.04439544677734,"nx":28,"ny":28,"refTime":"2022-09-21T21:00:00:Z","depth":"0","parameterNumber":2,"parameterNumberName":"U-component_of_CURRENTS"},"data":[0.0369,0.039,0.0415,0.0473,0.0517,0.0586,0.0646,0.0755,0.0857,0.1046,0.1206,0.133,0.161,0.2037,0.2199,0.2185,0.211,0.2231,0.2112,0.195,0.1908,0.1867,0.1888,0.227,0.2271,0.2321,0.2323,0.2324,0.0387,0.0423,0.0453,0.0495,0.0527,0.055,0.063,0.0693,0.0801,0.0914,0.1025,0.1291,0.1468,0.157,0.1731,0.1802,0.1737,0.1841,0.1844,0.1778,0.1551,0.157,0.1891,0.1891,0.1891,0.189,0.189,0.189,0.0407,0.0436,0.046,0.0491,0.0519,0.0568,0.0617,0.0669,0.0744,0.0851,0.0914,0.1047,0.1224,0.1296,0.1291,0.1406,0.1294,0.1406,0.1423,0.1415,0.1413,0.1167,0.1392,0.139,0.1389,0.1388,0.1387,0,0.041,0.0435,0.046,0.0486,0.0512,0.0556,0.0593,0.0621,0.0671,0.0732,0.0833,0.089,0.0977,0.1053,0.1083,0.1059,0.1009,0.0986,0.103,0.1162,0.1212,0.1158,0.0786,0.1022,0.1018,0.1015,0.1013,0.1012,0.0424,0.0427,0.0476,0.0491,0.05,0.0541,0.056,0.0589,0.0603,0.0681,0.0701,0.076,0.0794,0.083,0.0799,0.0797,0.0759,0.0897,0.0806,0.0884,0.0883,0.0878,0.0843,0.0971,0.0976,0.098,0.0984,0,0.0454,0.0437,0.0455,0.0486,0.0497,0.0532,0.0557,0.0574,0.0594,0.0617,0.0625,0.0615,0.0642,0.0573,0.054,0.05,0.0576,0.0519,0.0638,0.0637,0.0775,0.0787,0.1059,0.1047,0.0667,0.0671,0.0674,0,0.0466,0.0465,0.0478,0.0462,0.0507,0.0497,0.0524,0.0524,0.0526,0.0537,0.0483,0.0502,0.0401,0.0399,0.0327,0.0361,0.033,0.032,0.0305,0.0377,0.0389,0.0417,0.0426,0.0208,0.0207,0.0206,0.0205,0,0.0509,0.0469,0.0461,0.0443,0.0438,0.0447,0.0454,0.0426,0.041,0.0401,0.0409,0.0365,0.0349,0.0318,0.0235,0.0174,0.025,0.0144,0.0236,0.0242,0.0312,0.0321,0.0587,0.0203,0.0203,0.0203,0.0202,0,0.05,0.0472,0.0434,0.0454,0.0438,0.0428,0.0426,0.039,0.035,0.0314,0.0278,0.0204,0.0187,0.0115,0.0098,0.0054,0.0036,0.0,0.0003,0.0045,-0.0044,0.017,0.0381,0.0442,-0.0001,-0.0003,-0.0005,0,0.0592,0.0508,0.0446,0.0423,0.0392,0.0341,0.0328,0.0272,0.0216,0.0181,0.011,0.0052,-0.0039,-0.0064,-0.0059,-0.0141,-0.0088,-0.0159,-0.0172,-0.0171,-0.0091,0.0088,0.0199,0.034,-0.0029,-0.0026,-0.0024,0,0.0623,0.051,0.0496,0.0486,0.0375,0.0325,0.0291,0.0211,0.0204,0.0088,0.0068,-0.0051,-0.0095,-0.0157,-0.0248,-0.0235,-0.0131,-0.0302,-0.0306,-0.024,-0.0056,0.0041,0.0066,-0.0186,-0.0184,-0.0181,-0.0043,0,0.0648,0.0585,0.0548,0.0432,0.0371,0.0305,0.0204,0.0157,0.0092,0.0002,-0.0066,-0.0196,-0.0297,-0.0323,-0.0412,-0.0376,-0.0396,-0.0466,-0.0531,-0.043,-0.0385,-0.0369,-0.06,-0.0603,-0.0606,-0.0608,0,0,0.0733,0.0609,0.0492,0.0417,0.0349,0.0244,0.0191,0.011,-0.0082,-0.0122,-0.0168,-0.0352,-0.046,-0.0518,-0.0502,-0.0567,-0.0558,-0.0592,-0.0488,-0.0474,-0.0461,-0.0412,-0.0394,-0.0612,-0.0613,-0.0614,-0.0615,0,0.0698,0.0604,0.0529,0.0442,0.0288,0.0201,0.019,0.0008,-0.0061,-0.0165,-0.0279,-0.0342,-0.0518,-0.0592,-0.0649,-0.0602,-0.0663,-0.0627,-0.0526,-0.051,-0.0493,-0.0478,-0.0425,-0.0407,-0.0621,-0.0621,-0.062,0,0.0704,0.0579,0.052,0.0342,0.0233,0.0157,0.0044,-0.0064,-0.012,-0.0289,-0.0395,-0.0489,-0.062,-0.069,-0.0727,-0.0763,-0.0746,-0.0801,-0.0789,-0.0779,-0.0766,-0.0746,-0.0728,-0.0956,-0.0957,-0.0958,0,0,0.0687,0.0593,0.0408,0.032,0.0267,0.0095,0.0009,-0.0081,-0.0221,-0.0276,-0.0412,-0.0527,-0.0616,-0.0677,-0.078,-0.0844,-0.0857,-0.0836,-0.0821,-0.0807,-0.079,-0.0773,-0.0754,-0.096,-0.096,-0.096,0,0,0.0668,0.0454,0.0403,0.0284,0.016,-0.0054,-0.0119,-0.02,-0.0321,-0.0328,-0.0493,-0.0534,-0.0608,-0.0697,-0.071,-0.0789,-0.0858,-0.086,-0.0732,-0.0715,-0.07,-0.0654,-0.0827,0,0,0,0,0,0.0542,0.0486,0.0443,0.0398,0.0133,-0.0019,-0.0059,-0.022,-0.0256,-0.028,-0.0406,-0.0488,-0.0728,-0.0745,-0.0781,-0.0756,-0.0989,-0.0984,-0.0979,-0.083,-0.081,-0.0793,0,0,0,0,0,0,0.0524,0.0475,0.0441,0.0233,0.0168,-0.0019,-0.0114,-0.0158,-0.0257,-0.0272,-0.0462,-0.0494,-0.0613,-0.0735,-0.0766,-0.0738,-0.0817,-0.0987,-0.0983,-0.0979,-0.0823,-0.0807,-0.0792,0,0,0,0,0,0.0508,0.0468,0.0097,0.023,0.0175,-0.0055,-0.0113,-0.0151,-0.0217,-0.0427,-0.0462,-0.0333,-0.0609,-0.0645,-0.0754,-0.072,-0.0797,-0.0808,-0.0984,-0.0981,-0.0978,-0.0815,0,0,0,0,0,0,0.0495,0.0438,0.0081,0.0055,0.0234,-0.0048,-0.009,-0.0143,-0.0367,-0.0406,-0.0305,-0.0314,-0.0608,-0.0635,-0.0662,-0.0705,-0.078,-0.0791,-0.0798,-0.0982,-0.0979,-0.0976,0,0,0,0,0,0,0.0456,0.0419,0.0068,0.0083,0.0057,-0.004,-0.0078,-0.0191,-0.0366,-0.023,-0.0247,-0.0306,-0.0562,-0.0629,-0.065,-0.0821,-0.0767,-0.0778,-0.0785,-0.079,-0.0979,-0.0977,0,0,0,0,0,0,0.0437,0.0404,0.0089,0.007,0.0048,-0.0245,-0.0142,-0.0394,-0.0386,-0.0215,-0.0388,-0.0389,-0.0553,-0.0577,-0.0641,-0.0802,-0.0816,-0.0767,-0.0775,-0.078,-0.0783,0,0,0,0,0,0,0,0.042,0.0691,0.0221,0.0059,0.004,-0.0186,-0.0191,-0.0197,-0.0387,-0.0387,-0.0388,-0.0389,-0.0706,-0.0717,-0.0729,-0.0787,0,0,-0.0766,-0.0772,0,0,0,0,0,0,0,0,0.0699,0.0693,0.022,0.0214,0.0208,-0.0186,-0.0191,-0.0196,-0.0387,-0.0387,-0.0388,-0.0389,-0.0709,-0.0718,-0.0728,0,0,0,0,0,0,0,0,0,0,0,0,0,0,0,0.022,0.0215,0,-0.0187,-0.0191,-0.0195,-0.0387,-0.0387,-0.0388,-0.0388,-0.0711,-0.0719,-0.0727,0,0,0,0,0,0,0,0,0,0,0,0,0,0,0,0,0,0,0,0,0,0,0,0,0,0,0,0,0,0,0,0,0,0,0,0,0,0,0,0,0,0,0,0,0,0,0,0,0,0,0,0,0,0,0,0,0,0,0,0,0,0,0,0,0,0,0,0,0]}],[{"header":{"parameterUnit":"kt","parameterCategory":2,"dx":1,"dy":1,"la1":30.253999710083008,"la2":30.299108505249023,"lo1":-89.0895004272461,"lo2":-89.04439544677734,"nx":28,"ny":28,"refTime":"2022-09-21T21:00:00:Z","depth":"0","parameterNumber":3,"parameterNumberName":"V-component_of_CURRENTS"},"data":[-0.2585,-0.2459,-0.2411,-0.2166,-0.2083,-0.1958,-0.1944,-0.1965,-0.1976,-0.1935,-0.1931,-0.1965,-0.2105,-0.2561,-0.2855,-0.2995,-0.3107,-0.3243,-0.3195,-0.3033,-0.3027,-0.302,-0.3025,-0.3077,-0.3076,-0.3524,-0.3526,-0.3527,-0.2697,-0.2658,-0.2559,-0.2398,-0.2286,-0.2297,-0.2267,-0.2232,-0.2206,-0.2207,-0.2186,-0.2309,-0.2536,-0.2756,-0.299,-0.3065,-0.3278,-0.3102,-0.3277,-0.3315,-0.318,-0.3196,-0.3286,-0.3286,-0.3286,-0.3286,-0.3286,-0.3286,-0.284,-0.2802,-0.2713,-0.259,-0.2517,-0.2444,-0.2406,-0.2401,-0.2377,-0.2331,-0.239,-0.2368,-0.2627,-0.2777,-0.2872,-0.3038,-0.3047,-0.3084,-0.2998,-0.3118,-0.3184,-0.302,-0.309,-0.3089,-0.3088,-0.3087,-0.3086,0,-0.2905,-0.2897,-0.284,-0.272,-0.2652,-0.2596,-0.2554,-0.2544,-0.2542,-0.2532,-0.2518,-0.252,-0.2611,-0.2705,-0.2785,-0.2854,-0.294,-0.2919,-0.2878,-0.2989,-0.311,-0.3163,-0.2994,-0.3067,-0.3066,-0.3065,-0.3064,-0.3064,-0.2952,-0.2931,-0.2854,-0.279,-0.2762,-0.2712,-0.2675,-0.2678,-0.2635,-0.2624,-0.2599,-0.2601,-0.2587,-0.2638,-0.2722,-0.278,-0.2801,-0.2884,-0.2926,-0.2881,-0.2804,-0.2915,-0.2959,-0.3048,-0.305,-0.3051,-0.3053,0,-0.3004,-0.2953,-0.2884,-0.2833,-0.2814,-0.2775,-0.273,-0.2687,-0.2693,-0.2641,-0.2639,-0.2626,-0.2633,-0.2639,-0.2685,-0.2712,-0.279,-0.2768,-0.2846,-0.2861,-0.2868,-0.2795,-0.2958,-0.3015,-0.2811,-0.2811,-0.2811,0,-0.3031,-0.2977,-0.2938,-0.2898,-0.2831,-0.2819,-0.2751,-0.2726,-0.2702,-0.2662,-0.2656,-0.2633,-0.2656,-0.2654,-0.2685,-0.2717,-0.2722,-0.2767,-0.2773,-0.2857,-0.2862,-0.2865,-0.2799,-0.2787,-0.2787,-0.2787,-0.2787,0,-0.314,-0.3045,-0.2955,-0.2924,-0.2871,-0.2837,-0.2793,-0.2742,-0.2697,-0.2668,-0.2656,-0.2646,-0.2639,-0.2678,-0.2679,-0.2692,-0.2721,-0.2737,-0.2764,-0.2763,-0.2872,-0.288,-0.288,-0.2786,-0.2786,-0.2786,-0.2786,0,-0.3202,-0.3147,-0.3033,-0.301,-0.2972,-0.2911,-0.2813,-0.2745,-0.2703,-0.2677,-0.2655,-0.2638,-0.263,-0.2649,-0.2669,-0.2666,-0.2697,-0.2714,-0.2715,-0.2736,-0.2734,-0.2843,-0.2856,-0.283,-0.2718,-0.2718,-0.2717,0,-0.3367,-0.3235,-0.3179,-0.3081,-0.3016,-0.2968,-0.2903,-0.2833,-0.2761,-0.2709,-0.2694,-0.264,-0.2636,-0.263,-0.2648,-0.2651,-0.2676,-0.2659,-0.2728,-0.2729,-0.2735,-0.2724,-0.2823,-0.2844,-0.2712,-0.2712,-0.2713,0,-0.3464,-0.3362,-0.3344,-0.3312,-0.3178,-0.3105,-0.302,-0.2899,-0.2863,-0.2781,-0.2726,-0.2646,-0.2663,-0.2639,-0.2629,-0.2653,-0.2664,-0.2681,-0.2683,-0.2691,-0.2718,-0.2715,-0.2719,-0.2693,-0.2693,-0.2694,-0.2708,0,-0.3534,-0.3486,-0.3442,-0.3308,-0.3235,-0.3145,-0.3048,-0.2992,-0.2932,-0.2865,-0.2799,-0.2744,-0.2693,-0.2675,-0.2654,-0.2651,-0.2665,-0.2678,-0.2714,-0.2698,-0.2703,-0.2706,-0.2677,-0.2678,-0.2679,-0.2679,0,0,-0.367,-0.3543,-0.3472,-0.3389,-0.3309,-0.3243,-0.3151,-0.3079,-0.2946,-0.2913,-0.2904,-0.2787,-0.2757,-0.2702,-0.2681,-0.2661,-0.2685,-0.2695,-0.2697,-0.2698,-0.27,-0.2705,-0.2707,-0.268,-0.2681,-0.2681,-0.2681,0,-0.3638,-0.3587,-0.351,-0.3435,-0.3314,-0.3228,-0.3215,-0.3077,-0.3026,-0.2926,-0.2898,-0.2866,-0.2776,-0.2745,-0.272,-0.2671,-0.2708,-0.2672,-0.2676,-0.2701,-0.2702,-0.2703,-0.2707,-0.2709,-0.2682,-0.2682,-0.2682,0,-0.3658,-0.3569,-0.3529,-0.3392,-0.3313,-0.3216,-0.3182,-0.3094,-0.3019,-0.2996,-0.2899,-0.287,-0.283,-0.2771,-0.2756,-0.2775,-0.2743,-0.2735,-0.2732,-0.2748,-0.2775,-0.2776,-0.2776,-0.2777,-0.2777,-0.2778,0,0,-0.3641,-0.357,-0.3438,-0.338,-0.3333,-0.3216,-0.3148,-0.3097,-0.3014,-0.2984,-0.2932,-0.2896,-0.2847,-0.2837,-0.279,-0.2752,-0.2775,-0.2746,-0.2742,-0.2738,-0.2751,-0.2777,-0.2777,-0.2779,-0.2779,-0.2779,0,0,-0.3633,-0.3485,-0.3466,-0.3382,-0.3284,-0.3131,-0.3074,-0.3028,-0.2957,-0.2972,-0.2926,-0.2917,-0.2871,-0.2867,-0.288,-0.2814,-0.2835,-0.2831,-0.2812,-0.2807,-0.2802,-0.2825,-0.2886,0,0,0,0,0,-0.3551,-0.3503,-0.3488,-0.3458,-0.3277,-0.3146,-0.3115,-0.302,-0.3021,-0.2989,-0.2944,-0.2956,-0.286,-0.287,-0.286,-0.2848,-0.279,-0.2788,-0.2786,-0.2752,-0.2746,-0.2741,0,0,0,0,0,0,-0.3539,-0.3509,-0.3486,-0.3341,-0.3297,-0.3148,-0.3122,-0.3095,-0.3023,-0.3019,-0.2957,-0.2954,-0.2923,-0.2875,-0.2866,-0.2855,-0.2889,-0.2789,-0.2787,-0.2786,-0.275,-0.2745,-0.2741,0,0,0,0,0,-0.3528,-0.3504,-0.3256,-0.3338,-0.33,-0.3156,-0.3126,-0.3102,-0.3054,-0.2979,-0.2971,-0.299,-0.2922,-0.2915,-0.287,-0.2859,-0.2895,-0.2892,-0.2788,-0.2787,-0.2785,-0.2747,0,0,0,0,0,0,-0.352,-0.3472,-0.3244,-0.3225,-0.3365,-0.3162,-0.3136,-0.3109,-0.3021,-0.3006,-0.3013,-0.3011,-0.2921,-0.2916,-0.291,-0.2861,-0.29,-0.2897,-0.2895,-0.2787,-0.2786,-0.2785,0,0,0,0,0,0,-0.3484,-0.3459,-0.3235,-0.3274,-0.3259,-0.3168,-0.3145,-0.3107,-0.3027,-0.3062,-0.3054,-0.3014,-0.2976,-0.2916,-0.2912,-0.2849,-0.2904,-0.2901,-0.2899,-0.2897,-0.2786,-0.2785,0,0,0,0,0,0,-0.347,-0.3448,-0.3279,-0.3267,-0.3254,-0.3039,-0.3136,-0.299,-0.2956,-0.3072,-0.2961,-0.2963,-0.298,-0.2972,-0.2912,-0.2851,-0.285,-0.2904,-0.2902,-0.29,-0.2899,0,0,0,0,0,0,0,-0.3458,-0.3649,-0.3351,-0.3262,-0.325,-0.305,-0.3045,-0.3041,-0.2957,-0.2959,-0.2961,-0.2962,-0.2922,-0.2918,-0.2915,-0.2853,0,0,-0.2904,-0.2903,0,0,0,0,0,0,0,0,-0.3654,-0.365,-0.335,-0.3346,-0.3342,-0.3049,-0.3045,-0.3042,-0.2957,-0.2959,-0.296,-0.2962,-0.2921,-0.2918,-0.2915,0,0,0,0,0,0,0,0,0,0,0,0,0,0,0,-0.335,-0.3346,0,-0.3049,-0.3045,-0.3042,-0.2957,-0.2958,-0.296,-0.2961,-0.292,-0.2918,-0.2915,0,0,0,0,0,0,0,0,0,0,0,0,0,0,0,0,0,0,0,0,0,0,0,0,0,0,0,0,0,0,0,0,0,0,0,0,0,0,0,0,0,0,0,0,0,0,0,0,0,0,0,0,0,0,0,0,0,0,0,0,0,0,0,0,0,0,0,0,0]}]],[[{"header":{"parameterUnit":"kt","parameterCategory":2,"dx":1,"dy":1,"la1":30.253999710083008,"la2":30.299108505249023,"lo1":-89.0895004272461,"lo2":-89.04439544677734,"nx":28,"ny":28,"refTime":"2022-09-21T21:00:00:Z","depth":"2","parameterNumber":2,"parameterNumberName":"U-component_of_CURRENTS"},"data":[-0.0472,-0.0414,-0.0391,-0.0347,-0.0312,-0.0297,-0.0301,-0.0498,-0.0558,-0.0583,-0.0489,-0.0725,-0.0529,-0.0295,-0.0256,-0.0099,-0.0018,-0.0129,-0.0046,0.0006,0.0028,0.0145,0.0018,0,0,0,0,0,-0.0502,-0.0464,-0.0404,-0.035,-0.0343,-0.0288,-0.031,-0.0393,-0.0472,-0.0485,-0.0663,-0.058,-0.0613,-0.0382,-0.0064,0.0006,0.002,0.0033,0.0076,0.0096,0.0115,0.0025,-0.0091,-0.009,-0.0089,-0.0088,0,0,-0.0551,-0.0518,-0.0467,-0.0381,-0.0339,-0.0333,-0.0306,-0.0321,-0.0354,-0.0404,-0.054,-0.0614,-0.0525,-0.0276,-0.0158,0.0088,0.0112,0.0201,0.0212,0.0226,0.0137,0.006,0.0051,0.0052,0.0053,0.0054,0.0055,0,-0.0612,-0.0573,-0.0529,-0.0453,-0.0374,-0.0334,-0.027,-0.0265,-0.0209,-0.0232,-0.0332,-0.042,-0.0334,-0.0266,-0.0037,0.0042,0.0339,0.0317,0.0512,0.0305,0.0233,0.0199,0.0196,0.0272,0.0274,0.0276,0.0278,0.0279,-0.0663,-0.063,-0.0541,-0.05,-0.0439,-0.0337,-0.0282,-0.0204,-0.0188,-0.0138,-0.014,-0.0073,-0.0161,-0.0016,0.0181,0.0346,0.0434,0.0378,0.0367,0.048,0.0447,0.0434,0.0421,0.0308,0.0304,0.0301,0.0299,0,-0.0694,-0.0661,-0.0593,-0.0511,-0.0472,-0.039,-0.0287,-0.0236,-0.016,-0.0089,-0.0047,-0.0006,0.0057,0.0199,0.0357,0.0425,0.0528,0.0546,0.0399,0.036,0.0445,0.0428,0.0569,0.0566,0.0564,0.0562,0.056,0,-0.0731,-0.0672,-0.0609,-0.0577,-0.0486,-0.0433,-0.0324,-0.0255,-0.0162,-0.0105,-0.0008,0.0014,0.0188,0.0265,0.0364,0.0437,0.0511,0.0496,0.0476,0.0378,0.0355,0.0466,0.0444,0.0645,0.0644,0.0643,0.0643,0,-0.0778,-0.0695,-0.0631,-0.0605,-0.0535,-0.0459,-0.0399,-0.0287,-0.023,-0.0098,-0.0073,0.0093,0.0148,0.0277,0.0342,0.0336,0.0485,0.0474,0.0446,0.0436,0.0342,0.0316,0.0641,0.0641,0.0641,0.0641,0.064,0,-0.0798,-0.0765,-0.068,-0.0625,-0.06,-0.0527,-0.0417,-0.0345,-0.0222,-0.0178,-0.006,-0.0017,0.0138,0.0119,0.0297,0.0234,0.03,0.0335,0.0339,0.0194,0.0103,0.0087,0.0217,0.0335,0.0332,0.033,0.0328,0,-0.088,-0.0802,-0.0766,-0.0676,-0.0642,-0.0597,-0.0513,-0.0432,-0.0369,-0.0285,-0.0179,-0.0085,-0.0058,-0.0015,0.0078,0.0114,0.0218,0.0132,0.0188,0.019,0.0056,0.0203,0.0097,0.0187,0.0298,0.0301,0.0303,0,-0.0941,-0.0878,-0.0852,-0.0829,-0.0754,-0.0722,-0.0617,-0.0534,-0.0479,-0.0387,-0.0303,-0.0146,-0.0133,-0.0086,-0.0053,0.0024,0.0162,-0.0013,-0.0012,0.0018,0.0298,0.0175,0.0183,0.0151,0.0155,0.0158,0.0279,0,-0.1002,-0.095,-0.0912,-0.085,-0.081,-0.0762,-0.0719,-0.0662,-0.0627,-0.0591,-0.0456,-0.0392,-0.0306,-0.0263,-0.025,-0.0101,-0.0132,-0.0167,-0.0227,-0.0108,-0.0074,-0.0054,-0.0319,-0.0321,-0.0323,-0.0325,0,0,-0.1083,-0.1022,-0.1005,-0.0956,-0.0925,-0.092,-0.0871,-0.0824,-0.0767,-0.0721,-0.0731,-0.0573,-0.0532,-0.0389,-0.0331,-0.0325,-0.0308,-0.0336,-0.0172,-0.0155,-0.0139,-0.01,-0.0079,-0.0328,-0.0329,-0.033,-0.033,0,-0.1109,-0.1073,-0.1025,-0.1001,-0.0961,-0.0949,-0.0934,-0.0903,-0.0864,-0.0783,-0.0764,-0.0681,-0.0601,-0.0534,-0.0496,-0.0363,-0.0388,-0.0349,-0.0257,-0.0191,-0.0171,-0.0154,-0.0111,-0.0091,-0.0335,-0.0335,-0.0335,0,-0.1171,-0.1145,-0.112,-0.1074,-0.1049,-0.1009,-0.1038,-0.099,-0.094,-0.0955,-0.0852,-0.0818,-0.0769,-0.0661,-0.0615,-0.0647,-0.0464,-0.0528,-0.0517,-0.0512,-0.0448,-0.0425,-0.0404,-0.0672,-0.0673,-0.0674,0,0,-0.1194,-0.1149,-0.1137,-0.1084,-0.1068,-0.1055,-0.1032,-0.1022,-0.0983,-0.0958,-0.0924,-0.0871,-0.0804,-0.0763,-0.0714,-0.0625,-0.0622,-0.0568,-0.0552,-0.0539,-0.0526,-0.0459,-0.0436,-0.0677,-0.0677,-0.0678,0,0,-0.1211,-0.1184,-0.118,-0.1122,-0.11,-0.1083,-0.104,-0.1044,-0.0986,-0.097,-0.0959,-0.0945,-0.0843,-0.084,-0.0888,-0.0721,-0.0788,-0.0778,-0.0714,-0.0694,-0.0679,-0.0675,-0.0922,0,0,0,0,0,-0.124,-0.1192,-0.1189,-0.1178,-0.1124,-0.1089,-0.1081,-0.1058,-0.1062,-0.103,-0.0984,-0.1002,-0.085,-0.0893,-0.0882,-0.0807,-0.0724,-0.0716,-0.0708,-0.0605,-0.0585,-0.0567,0,0,0,0,0,0,-0.1236,-0.1224,-0.1191,-0.1175,-0.1162,-0.1091,-0.1106,-0.1099,-0.1064,-0.106,-0.1009,-0.1001,-0.099,-0.0899,-0.089,-0.0817,-0.0925,-0.0721,-0.0714,-0.0707,-0.0598,-0.0581,-0.0567,0,0,0,0,0,-0.1233,-0.1223,-0.1138,-0.1175,-0.1164,-0.113,-0.1106,-0.11,-0.1064,-0.1039,-0.1029,-0.1046,-0.0991,-0.0979,-0.0894,-0.0821,-0.0932,-0.0928,-0.0716,-0.0711,-0.0706,-0.059,0,0,0,0,0,0,-0.1231,-0.1216,-0.1135,-0.1131,-0.1178,-0.1132,-0.1123,-0.1101,-0.1043,-0.1035,-0.1077,-0.1075,-0.0991,-0.0982,-0.0974,-0.082,-0.0938,-0.0934,-0.0932,-0.0712,-0.0708,-0.0704,0,0,0,0,0,0,-0.1222,-0.1213,-0.1133,-0.1138,-0.1134,-0.1134,-0.1126,-0.1087,-0.1042,-0.1084,-0.1081,-0.1077,-0.0998,-0.0984,-0.0977,-0.0919,-0.0942,-0.0938,-0.0936,-0.0934,-0.0708,-0.0705,0,0,0,0,0,0,-0.1218,-0.121,-0.1139,-0.1136,-0.1133,-0.1088,-0.1099,-0.1038,-0.106,-0.1086,-0.106,-0.106,-0.1,-0.0993,-0.098,-0.0924,-0.092,-0.0942,-0.0939,-0.0938,-0.0937,0,0,0,0,0,0,0,-0.1215,-0.1267,-0.1159,-0.1134,-0.1132,-0.1097,-0.1096,-0.1095,-0.106,-0.106,-0.106,-0.106,-0.0962,-0.0958,-0.0954,-0.0929,0,0,-0.0942,-0.094,0,0,0,0,0,0,0,0,-0.127,-0.1268,-0.1159,-0.1159,-0.1158,-0.1097,-0.1096,-0.1095,-0.106,-0.106,-0.106,-0.106,-0.0961,-0.0958,-0.0955,0,0,0,0,0,0,0,0,0,0,0,0,0,0,0,-0.1159,-0.1159,0,-0.1097,-0.1096,-0.1095,-0.106,-0.106,-0.106,-0.106,-0.096,-0.0958,-0.0955,0,0,0,0,0,0,0,0,0,0,0,0,0,0,0,0,0,0,0,0,0,0,0,0,0,0,0,0,0,0,0,0,0,0,0,0,0,0,0,0,0,0,0,0,0,0,0,0,0,0,0,0,0,0,0,0,0,0,0,0,0,0,0,0,0,0,0,0,0]}],[{"header":{"parameterUnit":"kt","parameterCategory":2,"dx":1,"dy":1,"la1":30.253999710083008,"la2":30.299108505249023,"lo1":-89.0895004272461,"lo2":-89.04439544677734,"nx":28,"ny":28,"refTime":"2022-09-21T21:00:00:Z","depth":"2","parameterNumber":3,"parameterNumberName":"V-component_of_CURRENTS"},"data":[0.101,0.1022,0.1039,0.1091,0.1133,0.1141,0.1122,0.1084,0.0925,0.0635,0.041,0.0154,0.0206,0.0132,0.0263,0.0458,0.0523,0.0468,0.0656,0.051,0.0519,0.0638,0.052,0,0,0,0,0,0.1016,0.1027,0.1078,0.1093,0.1133,0.1138,0.111,0.1077,0.1095,0.0868,0.0861,0.0539,0.0521,0.0516,0.0587,0.0644,0.0594,0.0725,0.0613,0.0622,0.0631,0.0552,0.0536,0.0537,0.0537,0.0538,0,0,0.1031,0.1039,0.1047,0.1071,0.1104,0.1092,0.108,0.1085,0.1089,0.0996,0.1071,0.0999,0.0831,0.0691,0.0783,0.0878,0.0873,0.0832,0.0831,0.0833,0.0767,0.0773,0.0807,0.0808,0.081,0.0811,0.0812,0,0.1019,0.1015,0.1013,0.1043,0.1055,0.1054,0.1049,0.1032,0.1002,0.1031,0.1089,0.1126,0.1127,0.1054,0.1035,0.1004,0.0955,0.0944,0.1108,0.067,0.0674,0.0673,0.0673,0.0697,0.0698,0.0699,0.07,0.07,0.1028,0.1005,0.1,0.1016,0.1015,0.101,0.1016,0.0994,0.0996,0.1018,0.1025,0.1082,0.1108,0.1179,0.1071,0.1057,0.1089,0.097,0.0833,0.0968,0.097,0.096,0.0952,0.0714,0.0712,0.0711,0.0709,0,0.1044,0.102,0.1004,0.099,0.0986,0.0983,0.0983,0.0994,0.0984,0.0985,0.0975,0.1004,0.1043,0.1025,0.1025,0.0975,0.0983,0.0985,0.0864,0.0857,0.0947,0.094,0.1035,0.1037,0.1039,0.104,0.1041,0,0.1063,0.1047,0.1021,0.1002,0.1,0.0977,0.0981,0.0971,0.0969,0.096,0.094,0.0951,0.0885,0.0908,0.0873,0.0887,0.089,0.0827,0.0839,0.0702,0.0694,0.0773,0.077,0.0786,0.0785,0.0784,0.0783,0,0.1066,0.1053,0.1026,0.1015,0.098,0.098,0.0966,0.0949,0.0938,0.0926,0.093,0.0889,0.0865,0.0842,0.0806,0.0765,0.0835,0.0777,0.0803,0.0808,0.0716,0.0711,0.0781,0.0781,0.0781,0.078,0.078,0,0.107,0.1052,0.103,0.0996,0.0993,0.0979,0.0954,0.0935,0.0914,0.0898,0.0867,0.0832,0.0784,0.0727,0.0714,0.0693,0.0685,0.0676,0.0681,0.0722,0.0721,0.0733,0.0696,0.0758,0.0757,0.0756,0.0756,0,0.1053,0.1031,0.1019,0.0997,0.0976,0.0953,0.0929,0.09,0.0876,0.0863,0.0799,0.0761,0.0693,0.0669,0.0641,0.0627,0.0631,0.0583,0.0684,0.0689,0.0737,0.0715,0.0569,0.0685,0.0744,0.0745,0.0746,0,0.103,0.0993,0.0994,0.0978,0.095,0.0933,0.0908,0.0881,0.0877,0.0821,0.0818,0.0711,0.0694,0.0669,0.0624,0.0609,0.0616,0.0609,0.061,0.0703,0.0678,0.0699,0.0709,0.059,0.0591,0.0591,0.0736,0,0.0986,0.0975,0.0974,0.0954,0.0939,0.0934,0.0896,0.0878,0.085,0.0831,0.0784,0.0729,0.0696,0.0656,0.0629,0.0597,0.0636,0.0613,0.0665,0.0618,0.0687,0.0694,0.0621,0.0621,0.0622,0.0623,0,0,0.0971,0.0962,0.0941,0.0938,0.0929,0.0901,0.0902,0.0878,0.0851,0.0844,0.0828,0.076,0.0731,0.0687,0.0646,0.0628,0.0664,0.0673,0.0622,0.0622,0.0622,0.0686,0.0692,0.0624,0.0624,0.0624,0.0624,0,0.0958,0.0941,0.0942,0.093,0.0917,0.0903,0.0897,0.0883,0.0871,0.0839,0.0821,0.078,0.0752,0.0725,0.0708,0.0641,0.0706,0.0626,0.0624,0.0627,0.0626,0.0625,0.0688,0.0693,0.0626,0.0626,0.0626,0,0.0947,0.0933,0.093,0.091,0.0906,0.0897,0.0896,0.0892,0.0877,0.0879,0.0856,0.083,0.0807,0.0771,0.0756,0.0776,0.0755,0.0738,0.0733,0.0761,0.0768,0.0765,0.0762,0.0805,0.0806,0.0807,0,0,0.0941,0.0932,0.0915,0.0908,0.0904,0.0896,0.0893,0.0892,0.0879,0.0876,0.0871,0.0853,0.0824,0.0819,0.0803,0.078,0.0819,0.0761,0.0753,0.0746,0.077,0.0775,0.0771,0.081,0.081,0.081,0,0,0.0942,0.0922,0.0917,0.0909,0.0897,0.0891,0.0893,0.0887,0.0876,0.088,0.0882,0.0882,0.0848,0.0853,0.0888,0.0823,0.0854,0.0847,0.0836,0.0825,0.0817,0.0852,0.093,0,0,0,0,0,0.0926,0.0922,0.0917,0.0914,0.0902,0.089,0.089,0.0891,0.0894,0.0892,0.0876,0.0908,0.0858,0.089,0.0893,0.0875,0.0847,0.084,0.0834,0.0812,0.0801,0.0791,0,0,0,0,0,0,0.0924,0.092,0.0917,0.091,0.0907,0.0891,0.0899,0.09,0.0894,0.0895,0.0906,0.0908,0.0918,0.0891,0.0893,0.0875,0.0929,0.0844,0.0839,0.0834,0.0808,0.0799,0.0791,0,0,0,0,0,0.0923,0.0919,0.0899,0.091,0.0908,0.0906,0.0899,0.09,0.0899,0.0907,0.0909,0.0899,0.0918,0.092,0.0893,0.0873,0.0928,0.0929,0.0841,0.0836,0.0832,0.0804,0,0,0,0,0,0,0.0922,0.0928,0.0899,0.0898,0.0911,0.0907,0.0906,0.09,0.0913,0.0913,0.0901,0.0902,0.0918,0.0919,0.0921,0.0871,0.0928,0.0928,0.0929,0.0837,0.0834,0.0831,0,0,0,0,0,0,0.0929,0.0927,0.0899,0.0899,0.0899,0.0908,0.0907,0.0912,0.0913,0.0907,0.0907,0.0901,0.0916,0.0919,0.092,0.0928,0.0927,0.0928,0.0928,0.0928,0.0834,0.0832,0,0,0,0,0,0,0.0929,0.0927,0.09,0.09,0.09,0.0897,0.0914,0.0904,0.0906,0.0907,0.0906,0.0906,0.0915,0.0916,0.092,0.0927,0.0928,0.0927,0.0927,0.0928,0.0928,0,0,0,0,0,0,0,0.0928,0.0937,0.0897,0.09,0.09,0.0892,0.0893,0.0893,0.0906,0.0906,0.0906,0.0906,0.0924,0.0925,0.0925,0.0926,0,0,0.0927,0.0927,0,0,0,0,0,0,0,0,0.0938,0.0937,0.0897,0.0897,0.0896,0.0892,0.0893,0.0893,0.0906,0.0906,0.0906,0.0906,0.0924,0.0925,0.0925,0,0,0,0,0,0,0,0,0,0,0,0,0,0,0,0.0897,0.0897,0,0.0893,0.0893,0.0893,0.0906,0.0906,0.0906,0.0906,0.0924,0.0925,0.0925,0,0,0,0,0,0,0,0,0,0,0,0,0,0,0,0,0,0,0,0,0,0,0,0,0,0,0,0,0,0,0,0,0,0,0,0,0,0,0,0,0,0,0,0,0,0,0,0,0,0,0,0,0,0,0,0,0,0,0,0,0,0,0,0,0,0,0,0,0]}]],[[{"header":{"parameterUnit":"kt","parameterCategory":2,"dx":1,"dy":1,"la1":30.253999710083008,"la2":30.299108505249023,"lo1":-89.0895004272461,"lo2":-89.04439544677734,"nx":28,"ny":28,"refTime":"2022-09-21T21:00:00:Z","depth":"4","parameterNumber":2,"parameterNumberName":"U-component_of_CURRENTS"},"data":[-0.0716,-0.0717,-0.0703,-0.0604,-0.0542,-0.0496,-0.0494,-0.0531,-0.0522,-0.0596,-0.06,-0.0655,-0.0658,-0.0719,-0.0655,-0.0658,-0.0777,-0.0712,-0.0709,-0.0976,-0.0999,-0.1019,-0.098,0,0,0,0,0,-0.0742,-0.0723,-0.0717,-0.0676,-0.0656,-0.0635,-0.0656,-0.0686,-0.0739,-0.0697,-0.075,-0.073,-0.0709,-0.071,-0.0681,-0.0726,-0.0871,-0.0683,-0.0907,-0.099,-0.1015,-0.097,0,0,0,0,0,0,-0.0771,-0.0761,-0.0779,-0.0769,-0.0756,-0.0704,-0.0727,-0.0727,-0.0743,-0.0818,-0.078,-0.0818,-0.0881,-0.0841,-0.0835,-0.0839,-0.0877,-0.0897,-0.0926,-0.095,-0.0895,-0.079,-0.0594,0,0,0,0,0,-0.0791,-0.0815,-0.0827,-0.0821,-0.0828,-0.0817,-0.0837,-0.083,-0.0895,-0.0964,-0.0929,-0.0929,-0.0909,-0.0954,-0.0948,-0.0985,-0.118,-0.1102,-0.1118,-0.1215,-0.1157,-0.117,-0.1184,-0.1109,-0.1113,-0.1115,-0.1116,0,-0.0831,-0.0836,-0.0872,-0.087,-0.0893,-0.0922,-0.093,-0.1001,-0.1008,-0.1055,-0.1044,-0.1078,-0.1115,-0.1059,-0.1149,-0.118,-0.1186,-0.1165,-0.1268,-0.1198,-0.1202,-0.1211,-0.1218,-0.1136,-0.1134,-0.1133,-0.1131,0,-0.0856,-0.0879,-0.0895,-0.0943,-0.0954,-0.0972,-0.1025,-0.1037,-0.1105,-0.1121,-0.115,-0.1221,-0.1242,-0.1319,-0.1401,-0.1381,-0.1382,-0.1334,-0.1489,-0.1498,-0.1254,-0.1254,-0.1169,-0.1161,-0.1155,-0.115,-0.1146,0,-0.0896,-0.0909,-0.095,-0.096,-0.0973,-0.1035,-0.1059,-0.1105,-0.1162,-0.1169,-0.1268,-0.1271,-0.1423,-0.1444,-0.15,-0.1449,-0.1555,-0.1441,-0.1435,-0.1651,-0.1649,-0.1659,-0.1658,-0.1673,-0.1673,-0.1674,-0.1674,0,-0.0925,-0.0958,-0.0965,-0.0985,-0.1039,-0.1065,-0.1101,-0.1159,-0.1183,-0.1257,-0.128,-0.1363,-0.1409,-0.1479,-0.1523,-0.1565,-0.1575,-0.1644,-0.1476,-0.1462,-0.1661,-0.1659,-0.1674,-0.1674,-0.1675,-0.1675,-0.1675,0,-0.0965,-0.0974,-0.0989,-0.1033,-0.1043,-0.1076,-0.113,-0.1168,-0.1229,-0.1266,-0.1323,-0.1375,-0.1438,-0.1472,-0.155,-0.1556,-0.1585,-0.1614,-0.1614,-0.1437,-0.1437,-0.1575,-0.1599,-0.1599,-0.1599,-0.1599,-0.1599,0,-0.0978,-0.099,-0.102,-0.1051,-0.106,-0.1114,-0.115,-0.1197,-0.1241,-0.1287,-0.1341,-0.1399,-0.1437,-0.1477,-0.1515,-0.1575,-0.1585,-0.1581,-0.163,-0.1629,-0.1437,-0.1416,-0.164,-0.1596,-0.1596,-0.1597,-0.1597,0,-0.0988,-0.1023,-0.1029,-0.1042,-0.1093,-0.1112,-0.1159,-0.1195,-0.1218,-0.1293,-0.1326,-0.141,-0.144,-0.1473,-0.1519,-0.1552,-0.1576,-0.1587,-0.159,-0.1546,-0.1631,-0.1436,-0.1419,-0.1635,-0.1636,-0.1637,-0.1595,0,-0.1007,-0.1027,-0.1033,-0.1063,-0.109,-0.1108,-0.1151,-0.1191,-0.1235,-0.1266,-0.1334,-0.1394,-0.1458,-0.1488,-0.1514,-0.1565,-0.1562,-0.1595,-0.1583,-0.161,-0.1586,-0.1588,-0.1573,-0.1574,-0.1574,-0.1574,0,0,-0.1007,-0.1018,-0.1043,-0.1057,-0.1077,-0.1113,-0.1127,-0.1163,-0.123,-0.125,-0.1274,-0.1392,-0.1434,-0.1487,-0.1507,-0.1538,-0.1551,-0.1541,-0.1602,-0.1604,-0.1607,-0.1586,-0.1587,-0.1574,-0.1574,-0.1574,-0.1574,0,-0.1002,-0.1028,-0.1035,-0.1058,-0.1089,-0.1111,-0.1119,-0.1166,-0.1194,-0.1254,-0.1292,-0.134,-0.1431,-0.1462,-0.149,-0.1536,-0.1551,-0.1572,-0.1562,-0.1602,-0.1604,-0.1607,-0.1587,-0.1588,-0.1575,-0.1575,-0.1575,0,-0.1001,-0.1018,-0.103,-0.1059,-0.1082,-0.1103,-0.1118,-0.1148,-0.1176,-0.1216,-0.1282,-0.1327,-0.138,-0.1439,-0.147,-0.1467,-0.1541,-0.1536,-0.1537,-0.1523,-0.1563,-0.1566,-0.1569,-0.1524,-0.1524,-0.1524,0,0,-0.0997,-0.1014,-0.104,-0.1059,-0.1068,-0.1105,-0.1126,-0.1148,-0.1188,-0.1209,-0.126,-0.1315,-0.1363,-0.1394,-0.1442,-0.1497,-0.1498,-0.1527,-0.153,-0.1532,-0.1519,-0.1559,-0.1563,-0.1522,-0.1522,-0.1522,0,0,-0.0995,-0.1023,-0.1036,-0.1057,-0.1081,-0.1118,-0.1137,-0.1159,-0.1207,-0.1219,-0.1262,-0.1277,-0.1338,-0.1367,-0.1341,-0.1444,-0.1438,-0.1444,-0.1418,-0.1421,-0.1424,-0.1394,-0.1356,0,0,0,0,0,-0.1005,-0.1016,-0.1028,-0.1035,-0.1084,-0.111,-0.1119,-0.1153,-0.117,-0.1182,-0.123,-0.1246,-0.1365,-0.1342,-0.1356,-0.1385,-0.1502,-0.1505,-0.1509,-0.1488,-0.1491,-0.1494,0,0,0,0,0,0,-0.1008,-0.1015,-0.1028,-0.1061,-0.1073,-0.111,-0.1127,-0.1137,-0.1169,-0.1173,-0.1237,-0.1247,-0.1275,-0.1337,-0.1349,-0.1376,-0.1352,-0.1503,-0.1506,-0.1509,-0.1489,-0.1492,-0.1494,0,0,0,0,0,-0.101,-0.1016,-0.1082,-0.1062,-0.1072,-0.1118,-0.1127,-0.1135,-0.1166,-0.1214,-0.1225,-0.119,-0.1274,-0.1287,-0.1345,-0.137,-0.1344,-0.1348,-0.1505,-0.1507,-0.151,-0.1491,0,0,0,0,0,0,-0.1012,-0.1031,-0.1086,-0.1091,-0.1059,-0.1118,-0.1126,-0.1134,-0.1206,-0.1217,-0.1168,-0.117,-0.1273,-0.1284,-0.1294,-0.1367,-0.1337,-0.1342,-0.1344,-0.1507,-0.1509,-0.151,0,0,0,0,0,0,-0.1028,-0.1035,-0.1089,-0.1083,-0.1088,-0.1117,-0.1124,-0.117,-0.1207,-0.1157,-0.116,-0.1168,-0.1262,-0.1281,-0.1289,-0.1359,-0.1332,-0.1336,-0.1339,-0.1341,-0.1508,-0.151,0,0,0,0,0,0,-0.1032,-0.1038,-0.1082,-0.1085,-0.109,-0.1152,-0.1159,-0.1212,-0.119,-0.1154,-0.119,-0.119,-0.126,-0.1268,-0.1286,-0.1352,-0.1357,-0.1332,-0.1335,-0.1337,-0.1339,0,0,0,0,0,0,0,-0.1035,-0.0982,-0.1053,-0.1088,-0.1092,-0.1139,-0.1141,-0.1142,-0.119,-0.119,-0.119,-0.119,-0.1308,-0.1312,-0.1317,-0.1347,0,0,-0.1332,-0.1334,0,0,0,0,0,0,0,0,-0.0981,-0.0982,-0.1053,-0.1054,-0.1055,-0.1139,-0.1141,-0.1142,-0.119,-0.119,-0.119,-0.119,-0.1309,-0.1313,-0.1317,0,0,0,0,0,0,0,0,0,0,0,0,0,0,0,-0.1053,-0.1054,0,-0.1139,-0.1141,-0.1142,-0.119,-0.119,-0.119,-0.119,-0.131,-0.1313,-0.1316,0,0,0,0,0,0,0,0,0,0,0,0,0,0,0,0,0,0,0,0,0,0,0,0,0,0,0,0,0,0,0,0,0,0,0,0,0,0,0,0,0,0,0,0,0,0,0,0,0,0,0,0,0,0,0,0,0,0,0,0,0,0,0,0,0,0,0,0,0]}],[{"header":{"parameterUnit":"kt","parameterCategory":2,"dx":1,"dy":1,"la1":30.253999710083008,"la2":30.299108505249023,"lo1":-89.0895004272461,"lo2":-89.04439544677734,"nx":28,"ny":28,"refTime":"2022-09-21T21:00:00:Z","depth":"4","parameterNumber":3,"parameterNumberName":"V-component_of_CURRENTS"},"data":[-0.0731,-0.0781,-0.0802,-0.0883,-0.0939,-0.1038,-0.1085,-0.1119,-0.1084,-0.1112,-0.1037,-0.1039,-0.0912,-0.1025,-0.0804,-0.0783,-0.0822,-0.0666,-0.0662,-0.0776,-0.079,-0.0803,-0.0782,0,0,0,0,0,-0.0728,-0.0754,-0.0819,-0.0896,-0.0986,-0.1037,-0.1113,-0.1143,-0.1184,-0.1154,-0.1169,-0.1094,-0.0972,-0.0945,-0.0817,-0.0861,-0.0808,-0.0708,-0.0806,-0.0785,-0.08,-0.0775,0,0,0,0,0,0,-0.0731,-0.0761,-0.082,-0.0887,-0.0979,-0.1048,-0.1091,-0.1122,-0.1159,-0.1215,-0.1196,-0.1169,-0.1175,-0.103,-0.0941,-0.0846,-0.0817,-0.0808,-0.0821,-0.0836,-0.0816,-0.0777,-0.0668,0,0,0,0,0,-0.0724,-0.0758,-0.0807,-0.0888,-0.0961,-0.1041,-0.1117,-0.1137,-0.1214,-0.1272,-0.1261,-0.1223,-0.1161,-0.1091,-0.0995,-0.091,-0.0996,-0.0918,-0.0926,-0.0928,-0.0904,-0.0881,-0.0889,-0.0859,-0.0861,-0.0863,-0.0863,0,-0.071,-0.0742,-0.0835,-0.088,-0.0931,-0.1013,-0.1077,-0.1157,-0.1197,-0.1281,-0.13,-0.1308,-0.1317,-0.1166,-0.1134,-0.1014,-0.098,-0.0959,-0.0961,-0.093,-0.0902,-0.0906,-0.0908,-0.0876,-0.0875,-0.0874,-0.0873,0,-0.07,-0.0743,-0.0812,-0.0899,-0.0934,-0.0989,-0.1098,-0.1152,-0.1219,-0.1286,-0.1318,-0.1376,-0.1335,-0.1311,-0.1266,-0.1197,-0.1116,-0.1052,-0.1182,-0.1157,-0.0932,-0.093,-0.0897,-0.0892,-0.0888,-0.0885,-0.0882,0,-0.0698,-0.0749,-0.0818,-0.0853,-0.093,-0.099,-0.1076,-0.1131,-0.1206,-0.1259,-0.1315,-0.1343,-0.1364,-0.1348,-0.1292,-0.1182,-0.1256,-0.1085,-0.1053,-0.1183,-0.118,-0.1156,-0.1149,-0.1217,-0.1217,-0.1217,-0.1218,0,-0.068,-0.076,-0.0818,-0.0846,-0.0935,-0.0986,-0.1035,-0.1112,-0.1159,-0.1239,-0.1277,-0.132,-0.1348,-0.1321,-0.1272,-0.1267,-0.1239,-0.1228,-0.1075,-0.1064,-0.1155,-0.1148,-0.1218,-0.1218,-0.1218,-0.1218,-0.1218,0,-0.0689,-0.0725,-0.0796,-0.0879,-0.0898,-0.095,-0.1032,-0.1082,-0.1153,-0.1185,-0.1232,-0.1249,-0.1291,-0.1253,-0.1253,-0.1244,-0.1204,-0.1179,-0.1177,-0.1038,-0.098,-0.1046,-0.112,-0.112,-0.1119,-0.1119,-0.1118,0,-0.0663,-0.0722,-0.0756,-0.0828,-0.0861,-0.0899,-0.0956,-0.1009,-0.1046,-0.1101,-0.1126,-0.118,-0.1158,-0.1178,-0.1182,-0.1173,-0.1168,-0.1163,-0.1101,-0.1099,-0.0975,-0.1014,-0.1145,-0.1113,-0.1114,-0.1114,-0.1114,0,-0.0636,-0.0697,-0.0706,-0.0738,-0.079,-0.0816,-0.0877,-0.093,-0.0969,-0.1011,-0.1066,-0.1117,-0.1119,-0.113,-0.1125,-0.1127,-0.1155,-0.1085,-0.1084,-0.1061,-0.1147,-0.1021,-0.1012,-0.1138,-0.1139,-0.114,-0.1111,0,-0.0633,-0.0669,-0.0685,-0.0723,-0.0753,-0.0785,-0.0813,-0.0851,-0.0873,-0.0898,-0.0963,-0.098,-0.1017,-0.1028,-0.1017,-0.1069,-0.1032,-0.1017,-0.0968,-0.1025,-0.1002,-0.1006,-0.0945,-0.0944,-0.0943,-0.0942,0,0,-0.0597,-0.0627,-0.0633,-0.0661,-0.0685,-0.0689,-0.0725,-0.0751,-0.0792,-0.0818,-0.0806,-0.088,-0.0889,-0.0941,-0.0964,-0.0966,-0.0945,-0.0938,-0.0999,-0.1005,-0.1011,-0.0993,-0.0997,-0.094,-0.094,-0.0939,-0.0939,0,-0.0584,-0.0597,-0.062,-0.064,-0.0662,-0.0674,-0.0684,-0.0712,-0.0731,-0.0782,-0.078,-0.0816,-0.0846,-0.0864,-0.0872,-0.0945,-0.09,-0.0944,-0.0981,-0.0989,-0.0997,-0.1004,-0.0987,-0.0992,-0.0936,-0.0936,-0.0936,0,-0.0557,-0.0567,-0.0579,-0.0604,-0.0617,-0.0645,-0.0627,-0.0655,-0.0688,-0.0667,-0.0723,-0.0736,-0.0741,-0.0787,-0.0805,-0.0777,-0.0845,-0.083,-0.0837,-0.084,-0.0845,-0.0855,-0.0864,-0.075,-0.0749,-0.0749,0,0,-0.0546,-0.0566,-0.0577,-0.06,-0.0607,-0.062,-0.0635,-0.0641,-0.0658,-0.0669,-0.0682,-0.0696,-0.0721,-0.0727,-0.0751,-0.0786,-0.0768,-0.0809,-0.0818,-0.0825,-0.0832,-0.084,-0.085,-0.0747,-0.0747,-0.0747,0,0,-0.0537,-0.0549,-0.055,-0.0575,-0.0593,-0.0606,-0.0624,-0.0629,-0.0656,-0.0658,-0.065,-0.0651,-0.0698,-0.0687,-0.0663,-0.0732,-0.0694,-0.0699,-0.0739,-0.075,-0.0758,-0.0762,-0.0628,0,0,0,0,0,-0.0526,-0.0547,-0.0548,-0.0553,-0.0582,-0.0607,-0.0613,-0.0618,-0.0612,-0.0632,-0.0643,-0.0622,-0.0674,-0.0653,-0.0657,-0.069,-0.0723,-0.0727,-0.0731,-0.0792,-0.0803,-0.0813,0,0,0,0,0,0,-0.0527,-0.0532,-0.0547,-0.0559,-0.0566,-0.0607,-0.0587,-0.059,-0.061,-0.0609,-0.0623,-0.0622,-0.0614,-0.065,-0.0654,-0.0685,-0.0626,-0.0724,-0.0728,-0.0731,-0.0796,-0.0805,-0.0813,0,0,0,0,0,-0.0529,-0.0533,-0.0576,-0.056,-0.0565,-0.0576,-0.0586,-0.0588,-0.0611,-0.0605,-0.0606,-0.0612,-0.0615,-0.0618,-0.0652,-0.0684,-0.0624,-0.0625,-0.0727,-0.073,-0.0732,-0.08,0,0,0,0,0,0,-0.053,-0.0544,-0.0578,-0.058,-0.0546,-0.0575,-0.0578,-0.0587,-0.0606,-0.0606,-0.0592,-0.0591,-0.0616,-0.0618,-0.062,-0.0685,-0.0621,-0.0623,-0.0624,-0.0729,-0.0731,-0.0733,0,0,0,0,0,0,-0.0542,-0.0546,-0.0579,-0.0562,-0.0562,-0.0573,-0.0576,-0.0596,-0.0605,-0.0592,-0.0592,-0.0591,-0.0602,-0.0618,-0.062,-0.0652,-0.062,-0.0621,-0.0622,-0.0623,-0.0731,-0.0733,0,0,0,0,0,0,-0.0544,-0.0548,-0.0561,-0.0562,-0.0562,-0.0592,-0.059,-0.0616,-0.0603,-0.0591,-0.06,-0.0599,-0.0601,-0.0604,-0.062,-0.0651,-0.0651,-0.062,-0.0621,-0.0621,-0.0622,0,0,0,0,0,0,0,-0.0546,-0.0515,-0.0559,-0.0562,-0.0563,-0.0601,-0.0602,-0.0603,-0.0603,-0.0602,-0.0601,-0.0599,-0.0611,-0.0613,-0.0614,-0.065,0,0,-0.062,-0.062,0,0,0,0,0,0,0,0,-0.0514,-0.0515,-0.0559,-0.0559,-0.056,-0.0601,-0.0602,-0.0603,-0.0603,-0.0602,-0.0601,-0.06,-0.0612,-0.0613,-0.0614,0,0,0,0,0,0,0,0,0,0,0,0,0,0,0,-0.0559,-0.0559,0,-0.0601,-0.0602,-0.0603,-0.0603,-0.0602,-0.0601,-0.06,-0.0612,-0.0613,-0.0614,0,0,0,0,0,0,0,0,0,0,0,0,0,0,0,0,0,0,0,0,0,0,0,0,0,0,0,0,0,0,0,0,0,0,0,0,0,0,0,0,0,0,0,0,0,0,0,0,0,0,0,0,0,0,0,0,0,0,0,0,0,0,0,0,0,0,0,0,0]}]]]